This is the latest recevied weather packets stored in our database for station/object GW7110. If no packets are shown the sender has not sent any weather packets the latest 10 day(s).
| Time | Temp. | Humidity | Pressure | Rain* | Wind** | Luminosity | Snow |
|---|---|---|---|---|---|---|---|
| 1777369245 | 17.78° C | 81% | 30 hPa | 0.25 mm | - | 0 W/m² | - |
| 1777368945 | 17.78° C | 78% | 30 hPa | 0.25 mm | - | 0 W/m² | - |
| 1777368644 | 17.78° C | 78% | 30 hPa | 0.25 mm | - | 0 W/m² | - |
| 1777368345 | 17.78° C | 79% | 30 hPa | 1.02 mm | - | 0 W/m² | - |
| 1777368045 | 17.78° C | 80% | 30 hPa | 0.76 mm | - | 0 W/m² | - |
| 1777367745 | 18.33° C | 79% | 30 hPa | 0.51 mm | - | 0 W/m² | - |
| 1777367444 | 17.78° C | 76% | 30 hPa | 0.76 mm | - | 0 W/m² | - |
| 1777367145 | 17.78° C | 77% | 30 hPa | 0.76 mm | - | 0 W/m² | - |
| 1777366845 | 17.22° C | 83% | 30 hPa | 1.78 mm | - | 0 W/m² | - |
| 1777366544 | 17.22° C | 84% | 30 hPa | 1.78 mm | - | 0 W/m² | - |
| 1777366245 | 17.22° C | 82% | 30 hPa | 1.78 mm | - | 0 W/m² | - |
| 1777365945 | 17.78° C | 82% | 30 hPa | 2.54 mm | - | 0 W/m² | - |
| 1777365645 | 17.78° C | 80% | 30 hPa | 2.54 mm | - | 0 W/m² | - |
| 1777365345 | 17.78° C | 79% | 30 hPa | 3.81 mm | - | 0 W/m² | - |
| 1777365045 | 17.78° C | 81% | 30 hPa | 3.81 mm | - | 0 W/m² | - |
| 1777364744 | 17.78° C | 78% | 30.1 hPa | 2.03 mm | - | 0 W/m² | - |
| 1777364445 | 17.22° C | 80% | 30 hPa | 1.27 mm | - | 0 W/m² | - |
| 1777364145 | 17.22° C | 83% | 30 hPa | 2.29 mm | - | 0 W/m² | - |
| 1777363845 | 17.78° C | 83% | 30 hPa | 3.81 mm | - | 0 W/m² | - |
| 1777363545 | 17.78° C | 83% | 30 hPa | 4.06 mm | - | 0 W/m² | - |
| 1777363245 | 18.33° C | 79% | 30 hPa | 3.56 mm | - | 0 W/m² | - |
| 1777362944 | 18.33° C | 75% | 30 hPa | 3.56 mm | - | 0 W/m² | - |
| 1777362645 | 18.33° C | 76% | 30 hPa | 3.56 mm | - | 0 W/m² | - |
| 1777362345 | 18.33° C | 77% | 30 hPa | 2.79 mm | - | 0 W/m² | - |
| 1777362046 | 17.78° C | 75% | 30 hPa | 3.3 mm | - | 0 W/m² | - |
* Rain latest hour (hover to see other rain measurements)
** Current wind speed in m/s (hover to see current wind gust speed)